Theta_e
307 307 306 306 306 306 306 306 306 306 306 305 305 305 304 305 305 305 305 307 308 309 307 307 304 315 312 312 312 311 315 315 311 306 306 305 305 304 303 304 304 305 305 305 305 305 305
308 306 305 305 305 306 305 306 305 305 305 305 303 303 303 304 304 303 302 305 307 309 307 305 307 314 314 312 311 312 315 313 307 306 306 306 305 304 305 304 304 305 305 305 305 305 305
306 305 306 306 305 305 306 306 305 305 304 303 303 304 303 304 303 302 303 305 307 308 307 303 309 311 312 310 312 312 313 306 306 305 305 305 305 305 305 304 305 305 305 304 305 306 306
305 305 305 306 307 306 306 306 305 305 304 304 304 304 303 303 303 303 306 307 307 307 305 301 310 309 308 311 313 311 307 306 306 306 306 306 306 305 305 304 302 304 302 305 304 306 307
305 303 305 306 306 306 307 306 304 302 302 302 304 305 303 302 302 303 304 307 306 304 306 304 308 307 309 310 308 307 305 306 306 306 307 307 305 305 305 302 302 302 305 305 306 305 306
305 303 304 305 307 307 307 306 306 303 302 303 303 305 304 303 303 305 306 306 308 307 307 308 307 306 308 309 308 306 306 305 306 306 306 306 305 303 303 302 304 306 305 305 306 305 306
306 302 304 305 306 305 304 302 301 302 302 302 303 304 303 304 303 306 305 305 305 305 304 304 306 307 308 306 305 307 306 306 307 306 306 306 303 301 302 302 301 305 305 306 305 306 306
304 303 304 304 304 302 300 302 302 301 301 303 303 303 304 304 304 306 306 305 304 304 303 305 306 306 306 306 305 306 306 307 307 306 305 302 303 303 302 302 304 305 306 306 306 306 307
301 303 303 304 304 301 300 299 300 302 302 302 303 303 303 304 305 305 304 305 305 305 303 304 304 305 305 306 306 306 306 307 305 304 304 303 305 303 305 305 306 305 306 306 307 307 309
303 302 302 303 300 299 300 300 301 301 302 302 302 304 303 304 305 305 305 306 306 306 306 306 307 305 306 305 305 306 306 306 305 303 303 303 303 304 304 305 305 308 305 307 308 312 313
305 302 300 302 302 299 299 300 301 300 302 303 303 304 303 306 306 306 304 304 305 305 303 306 307 305 305 305 304 305 305 306 305 304 302 303 305 307 308 307 305 309 309 309 310 313 313
305 304 302 301 303 304 303 300 300 301 300 303 304 304 304 303 304 304 304 304 304 300 306 306 306 306 305 305 306 305 304 305 305 304 304 303 304 306 305 306 307 307 309 310 310 311 316
299 304 303 302 301 302 304 301 300 300 300 302 305 305 305 305 304 304 305 304 299 305 304 303 306 305 304 304 304 304 304 303 303 301 302 305 306 305 306 308 307 310 312 308 308 315 312
297 306 305 303 302 302 302 300 300 300 300 300 304 305 305 306 305 305 304 300 304 306 304 305 306 306 305 304 302 303 303 303 301 304 303 305 305 307 308 309 310 312 313 311 312 313 313
299 301 306 304 303 302 302 301 301 301 300 301 305 305 306 306 306 305 305 305 307 306 305 306 306 305 305 306 304 304 303 303 305 303 305 310 306 308 309 310 311 314 316 313 316 314 316
306 297 306 306 304 302 302 301 301 303 303 304 305 305 307 307 306 306 304 308 305 306 306 306 305 304 305 304 304 305 305 306 309 305 306 310 310 307 310 311 311 313 312 317 315 317 316
309 298 303 306 305 302 301 301 302 303 304 305 306 306 307 307 307 307 305 306 306 306 306 308 307 305 305 310 308 307 308 308 311 312 310 311 310 309 311 313 315 315 315 315 316 316 317
310 302 299 307 306 304 302 301 303 303 304 305 306 301 307 308 305 299 299 303 305 306 307 306 307 306 308 309 311 313 312 310 310 310 311 311 312 313 312 310 311 312 314 314 315 317 313
310 309 298 305 306 305 303 302 302 303 304 304 305 306 306 307 302 297 301 303 304 306 306 307 308 307 307 308 310 310 310 310 310 310 311 310 309 310 308 308 308 310 311 311 311 309 313
311 310 302 300 307 305 303 303 302 303 304 304 304 299 306 306 302 301 302 304 307 307 307 307 306 307 308 308 307 309 308 309 309 310 311 310 306 308 310 311 308 309 308 307 309 312 312
313 310 309 299 306 306 303 303 303 303 304 304 304 301 301 298 301 300 302 304 306 307 307 307 307 306 307 308 307 307 307 305 307 307 309 306 306 302 305 305 306 306 308 308 307 308 310
312 310 310 303 304 306 304 303 304 304 304 305 304 303 302 301 301 301 302 305 306 306 306 307 307 306 306 308 307 308 307 306 307 305 306 303 305 306 306 305 305 307 307 308 309 309 308
314 312 310 308 302 306 305 302 304 304 305 304 304 303 303 299 299 300 301 303 305 305 307 307 306 306 307 307 307 307 306 306 305 306 305 304 304 305 305 303 304 306 305 308 309 308 307
316 312 311 310 301 306 305 303 304 305 305 305 305 305 303 300 299 301 302 303 304 305 307 307 307 306 307 307 307 305 304 304 303 302 303 305 304 303 305 302 303 304 305 306 308 307 306
317 311 311 310 302 306 304 303 304 305 305 304 304 304 304 300 299 301 301 302 304 304 304 305 307 308 307 307 304 304 302 304 305 303 301 302 303 306 304 302 302 303 303 305 308 308 305
317 315 310 310 304 305 304 303 304 305 305 305 305 305 304 302 299 303 301 302 300 300 301 305 307 307 307 302 303 306 304 305 305 303 302 301 301 304 302 304 304 300 303 305 305 308 305
314 315 311 309 307 302 304 303 304 305 305 305 305 304 302 303 302 303 302 301 303 301 300 303 306 306 306 302 306 304 304 302 304 304 302 303 302 304 305 303 303 300 304 305 308 303 304
315 315 314 309 309 299 305 303 303 304 303 304 304 304 303 302 302 302 303 303 303 303 301 303 303 303 301 304 304 303 301 301 301 300 301 302 301 302 301 303 304 302 303 306 305 304 307
314 314 315 309 309 305 300 304 303 303 303 304 304 304 304 303 304 304 303 303 303 304 305 305 304 303 304 298 299 300 303 297 298 303 298 301 300 300 301 303 301 303 304 307 306 307 307
Wind_Speed
26 28 27 29 33 32 34 30 27 24 16 12 13 11 10 10 7 9 8 4 5 4 1 4 9 22 18 10 7 9 15 17 11 11 10 9 8 6 5 6 4 2 1 3 7 13 16
26 27 27 30 31 33 31 29 26 23 17 15 15 14 12 9 7 4 5 5 5 5 2 2 10 26 19 8 6 13 17 11 12 12 10 7 6 10 10 4 3 1 4 10 9 10 9
26 25 27 28 30 32 30 28 26 24 22 21 21 19 16 9 6 3 1 3 6 5 1 2 5 12 14 12 19 18 13 11 10 8 14 13 10 3 7 4 3 1 4 5 1 3 3
26 25 26 27 28 31 30 27 26 24 24 23 27 24 18 11 5 7 6 4 6 6 3 5 11 10 7 19 18 19 13 17 13 13 13 11 9 12 5 6 4 3 3 3 1 4 3
25 24 24 25 26 28 32 31 25 23 23 22 23 25 21 16 12 9 8 9 6 9 8 11 14 14 7 17 24 20 15 19 15 12 13 10 6 6 4 3 3 6 1 3 8 4 2
25 24 24 24 23 24 26 28 28 26 25 22 22 20 19 19 14 15 16 13 23 25 23 15 14 8 9 9 23 20 15 16 15 16 12 5 5 3 3 3 3 2 2 2 6 4 5
24 25 23 23 22 22 25 28 31 28 25 24 23 22 20 17 16 22 24 24 13 11 9 5 10 11 15 24 19 18 13 14 14 7 3 4 4 2 3 3 4 1 2 6 6 9 5
22 23 22 22 21 23 25 26 27 27 26 25 21 18 20 19 14 15 8 14 16 8 15 31 33 33 22 15 16 13 11 4 3 3 2 4 1 3 2 3 2 1 3 6 9 6 4
19 20 21 21 21 22 25 26 27 27 25 25 25 12 15 22 21 22 34 25 21 9 8 14 20 15 13 12 9 9 4 5 4 3 1 3 3 7 2 1 1 3 4 4 7 6 9
21 19 19 19 20 21 22 23 26 26 26 26 26 21 3 10 22 25 26 14 5 2 4 7 7 8 8 12 6 5 5 2 2 3 3 2 1 3 2 3 6 3 8 11 9 7 4
25 18 18 18 19 20 21 21 22 25 26 26 28 26 16 19 21 12 6 4 5 1 6 10 6 6 11 8 10 2 1 4 3 2 3 3 2 3 2 5 6 6 1 5 6 11 8
29 20 18 17 16 17 18 18 18 19 22 24 26 21 16 9 6 4 4 6 6 6 8 5 3 4 4 6 4 3 2 3 2 2 1 5 2 3 5 3 7 4 5 6 5 3 4
30 25 18 18 19 18 17 16 16 16 16 16 23 21 15 8 7 6 7 4 6 7 2 5 3 4 4 3 3 2 1 2 2 4 3 3 3 3 5 2 1 3 4 3 4 2 5
28 26 23 19 18 19 20 16 15 15 14 12 15 22 18 14 9 5 3 6 10 4 4 2 1 2 3 1 1 1 1 1 3 3 1 3 5 3 4 5 2 2 1 2 3 2 4
26 26 24 21 18 17 18 18 17 15 13 11 7 22 23 18 10 11 11 9 3 2 1 1 2 3 3 1 3 1 1 2 1 5 2 3 4 1 4 2 1 2 2 0 3 4 3
25 25 24 22 21 16 14 15 15 17 14 10 6 9 22 23 22 15 6 8 3 2 3 2 3 2 3 4 3 4 3 0 2 5 5 2 5 3 2 1 3 4 2 2 2 4 4
23 23 23 23 20 17 14 12 13 15 12 10 8 4 16 14 21 16 6 3 0 1 2 2 1 2 3 1 2 1 2 4 2 4 5 1 1 5 2 4 4 2 2 3 3 1 2
21 21 21 22 20 18 13 11 11 14 11 10 9 4 10 10 8 5 3 2 1 1 1 1 2 3 4 6 2 3 2 4 5 5 3 5 2 4 6 2 3 2 4 2 1 1 1
18 21 18 20 20 17 14 9 11 14 13 6 5 5 14 5 3 3 3 2 2 5 3 1 1 2 1 3 2 3 3 3 9 6 4 3 1 4 3 3 1 3 3 4 0 1 3
17 17 19 17 19 16 13 10 9 12 12 6 3 3 8 13 8 5 2 3 3 4 1 2 4 3 3 3 3 2 4 1 3 5 3 4 2 5 4 5 1 4 3 4 5 2 2
17 15 18 16 16 14 11 9 8 8 12 4 3 2 3 2 4 4 2 0 3 4 4 8 3 3 1 4 3 4 2 5 1 3 2 2 3 3 6 8 3 5 6 4 6 5 3
16 15 15 18 15 12 10 9 7 7 10 6 2 4 5 4 2 2 2 1 1 1 1 4 3 4 3 3 5 4 1 3 2 4 1 1 3 1 5 4 5 5 6 5 5 2 2
19 13 14 15 15 11 9 7 6 5 6 4 5 6 2 1 3 1 3 4 4 1 2 1 2 1 2 3 8 13 12 8 5 2 2 1 1 3 4 5 7 5 8 7 4 4 6
20 15 12 13 14 12 11 8 5 2 4 6 4 3 1 1 2 4 3 3 5 3 2 4 4 3 2 11 12 5 6 11 9 8 8 1 2 2 4 6 2 4 2 2 4 5 8
22 17 11 12 11 12 10 5 7 3 1 5 4 2 2 0 3 3 5 4 4 4 4 5 6 5 9 7 2 4 4 3 2 3 5 6 2 1 1 2 7 2 4 5 6 6 11
22 21 14 11 8 9 4 5 7 6 3 1 1 3 2 3 5 4 4 5 3 2 4 6 7 7 3 2 2 2 3 1 3 5 3 3 2 3 1 1 5 5 2 7 4 5 2
21 22 17 12 10 7 7 8 8 7 6 6 5 5 4 4 4 8 5 5 5 3 3 5 2 2 2 2 1 3 3 2 3 3 4 2 1 5 4 4 8 6 3 5 4 5 3
20 21 20 13 13 9 10 11 11 10 8 8 6 5 4 4 9 10 10 10 7 5 3 0 2 1 2 1 3 3 4 4 1 4 4 6 5 4 2 2 7 11 6 8 6 4 1
22 20 21 16 15 13 13 14 15 13 11 10 10 7 7 8 9 15 17 15 18 15 7 7 3 3 5 3 1 0 2 1 2 3 1 3 5 3 8 6 3 15 6 16 6 8 12
Wind_Direction
11 6 4 4 360 356 353 355 352 356 356 4 1 358 354 326 300 284 265 254 237 208 268 221 182 184 205 119 86 128 144 166 165 149 151 142 132 114 109 108 105 90 12 308 278 286 283
11 6 8 9 4 1 4 7 18 17 25 15 7 350 327 294 293 287 263 222 216 186 257 210 178 177 189 138 182 145 144 143 150 151 138 142 133 119 104 100 96 134 287 281 286 281 265
10 9 10 9 13 15 17 23 25 29 26 24 14 11 350 323 280 0 32 171 175 173 221 148 168 142 157 145 150 162 141 129 124 132 121 110 116 127 110 101 73 35 343 322 255 331 266
8 10 12 11 18 19 21 27 30 30 30 30 27 26 15 36 107 105 81 126 160 150 159 162 153 127 80 139 148 128 152 119 118 116 113 103 99 95 85 117 46 52 58 14 359 333 327
8 11 14 11 21 23 28 33 29 28 27 22 22 29 41 59 97 76 71 83 149 139 129 132 144 122 118 134 121 126 132 121 121 109 116 114 94 85 88 80 50 19 46 11 317 342 295
9 11 14 13 18 22 26 31 33 30 30 30 32 36 49 62 87 83 97 93 111 118 111 118 122 91 136 112 120 115 122 132 117 113 99 66 58 62 48 63 204 123 46 280 255 282 283
13 7 12 15 15 19 22 26 26 26 35 39 41 52 62 54 86 108 113 106 99 57 72 109 142 117 109 114 109 125 128 128 120 70 78 39 70 123 190 138 135 129 238 256 270 269 294
21 5 9 15 16 21 23 27 28 28 27 28 40 54 47 56 88 127 118 87 84 99 61 72 89 97 108 114 112 122 116 96 60 86 63 33 88 209 142 138 161 249 305 285 280 276 202
13 13 6 11 17 23 23 20 22 24 30 29 30 47 61 51 96 115 98 99 110 97 76 41 59 66 74 99 97 125 60 103 102 85 88 123 143 133 133 169 202 234 215 242 238 283 255
9 15 7 9 15 26 27 25 22 25 29 30 32 31 49 68 100 103 104 112 96 107 82 26 31 37 61 133 68 131 69 97 63 140 161 240 189 204 164 234 172 271 211 243 264 312 297
5 8 9 6 12 17 22 28 30 27 30 35 35 34 53 107 131 120 101 50 10 342 69 348 19 48 56 81 125 135 70 42 96 107 86 266 175 188 212 223 172 243 186 253 263 263 277
0 9 9 5 2 8 15 22 27 29 26 29 30 35 37 82 91 64 20 348 344 43 54 28 26 349 56 43 43 74 30 357 37 35 29 257 271 230 219 246 203 287 299 273 227 226 244
3 9 9 1 359 360 11 25 24 29 29 34 30 34 29 23 349 330 332 341 49 56 303 342 13 2 56 42 58 60 41 354 97 61 358 299 221 242 192 251 253 180 276 338 2 197 235
6 1 8 3 2 0 0 22 24 28 31 30 34 36 27 22 27 31 17 48 62 40 65 245 317 324 77 119 40 81 137 336 193 145 128 30 335 187 179 207 247 256 140 169 270 283 287
4 3 359 7 0 1 3 11 14 16 27 38 46 36 35 38 52 78 92 56 66 75 221 145 317 63 12 53 127 55 160 287 0 178 106 339 287 279 209 237 171 60 213 265 263 227 266
359 3 359 3 4 1 10 9 25 23 38 52 64 45 38 47 62 80 79 92 94 148 187 186 106 73 51 354 27 31 6 232 233 183 207 343 296 233 307 163 229 209 359 246 221 312 306
358 3 358 356 4 1 4 17 16 25 26 50 54 75 22 66 62 54 65 99 321 306 199 139 125 106 88 117 53 82 280 281 255 155 174 108 35 300 351 211 178 173 260 232 283 292 304
359 357 1 355 355 3 1 8 10 14 40 51 49 49 44 67 56 35 37 337 358 300 235 189 232 196 167 164 142 175 210 223 204 182 189 191 232 266 244 53 174 178 201 215 234 266 220
357 351 2 355 352 355 358 352 349 4 13 60 63 55 33 106 87 3 338 349 307 7 28 28 54 26 44 179 110 219 221 242 187 176 190 182 269 310 8 29 83 228 212 225 179 8 222
351 353 349 359 351 352 353 350 346 353 9 40 81 40 34 58 90 117 81 6 10 352 25 4 18 43 46 50 16 359 343 326 212 213 229 176 197 199 196 233 183 285 252 259 180 182 173
342 346 347 351 352 347 348 342 346 358 4 13 56 92 89 300 24 99 126 70 8 8 3 24 37 61 238 34 18 4 328 327 166 355 164 160 252 186 249 244 236 246 250 226 196 234 187
334 334 345 344 352 343 345 329 333 0 354 18 41 129 112 102 15 116 5 164 358 314 23 352 76 317 356 147 175 235 157 205 239 327 127 307 269 306 284 159 234 253 224 204 220 196 213
322 325 330 340 341 337 328 315 300 358 12 45 61 110 110 148 121 356 222 191 186 160 224 213 270 276 266 243 249 260 257 258 220 196 239 120 22 20 270 344 309 289 209 193 205 200 153
312 311 316 329 332 331 315 287 248 333 42 68 66 74 357 201 173 192 192 208 202 224 235 259 227 187 253 311 304 283 255 250 245 243 225 220 121 150 272 347 0 248 3 150 218 240 216
303 302 300 310 327 323 325 254 210 192 90 84 74 38 108 173 234 253 199 209 261 242 228 242 244 261 304 323 354 342 334 329 254 222 199 207 130 228 239 246 285 263 203 182 179 271 203
299 301 291 289 308 310 306 221 214 214 231 159 353 350 327 139 234 225 180 211 193 249 309 238 230 244 275 79 57 277 256 259 302 320 100 96 72 135 143 194 243 239 205 186 144 286 282
297 298 290 271 280 272 254 221 233 244 249 259 273 305 287 270 243 182 191 187 189 182 231 291 265 208 188 108 197 192 259 209 259 229 183 191 207 197 198 237 284 231 178 151 119 233 204
285 290 288 263 261 255 244 228 231 251 259 263 270 287 282 277 276 250 240 210 196 205 169 285 358 285 61 181 175 217 194 217 254 243 204 184 163 208 127 206 280 170 119 171 207 178 224
281 280 284 264 250 256 243 235 234 240 255 265 268 273 281 266 267 280 271 257 241 240 236 207 193 205 205 102 243 24 259 63 177 284 346 270 201 208 190 217 283 210 266 223 214 256 278